Home > Weather > Düren > Past weeks

Flag for Germany Past Weather in Düren, North Rhine-Westphalia, Germany — Yesterday and Last 2 Weeks

Now
70 °F

Passing clouds.


Feels Like: 70 °F
Forecast: 65 / 90 °F
Wind: 3 mph from North

Location: Noervenich

Current Time: Aug 26, 2016 at 8:58:30 AM

Latest Report: Aug 26, 2016 at 8:20 AM


Visibility: N/A

Pressure: 29.98 "Hg

Humidity: 69%

Dew Point: 59 °F

Location of DürenLocation

Past Weather in Düren — Graph

°F

Düren Temperature Yesterday

Maximum temperature yesterday: 91 °F (at 3:20 PM)
Minimum temperature yesterday: 64 °F (at 5:20 AM)
Average temperature yesterday: 78 °F

High & Low Weather Summary for the Past Weeks

 TemperatureHumidityPressure
High91 °F (Aug 25, 3:20 PM)100% (Aug 11, 10:20 PM)30.33 "Hg (Aug 11, 10:20 PM)
Low48 °F (Aug 11, 7:20 AM)32% (Aug 25, 5:20 PM)29.77 "Hg (Aug 18, 4:20 PM)
Average67 °F70%30.09 "Hg
* Reported Aug 11 7:20 AM — Aug 26 7:20 AM, Düren, Weather by CustomWeather, © 2016

Note: Actual official high and low records may vary slightly from our data, if they occured in-between our weather recording intervals... More about our weather records

Advertising

Düren Weather History for the Previous 24 Hours

Scroll right to see more
 ConditionsComfort  
Time TempWeatherWind HumidityBarometerVisibility
7:20 AM
Fri, Aug 26
66 °FPassing clouds.3 mph78%29.98 "HgN/A
6:20 AM68 °FPassing clouds.5 mph73%29.98 "HgN/A
5:20 AM68 °FMild.3 mph73%29.98 "Hg6 mi
4:20 AM70 °FMild.3 mph69%29.98 "Hg4 mi
3:20 AM70 °FMild.5 mph69%29.98 "Hg4 mi
2:20 AM72 °FMild.3 mph65%29.95 "Hg4 mi
1:20 AM73 °FMild.6 mph61%29.98 "Hg4 mi
12:20 AM73 °FMild.5 mph61%29.98 "Hg4 mi
11:20 PM
Thu, Aug 25
73 °FMild.6 mph61%29.98 "Hg4 mi
10:20 PM79 °FWarm.6 mph51%29.98 "Hg4 mi
9:20 PM81 °FPassing clouds.7 mph48%29.98 "HgN/A
8:20 PM84 °FWarm.6 mph43%29.95 "HgN/A
7:20 PM90 °FHot.7 mph36%29.95 "HgN/A
6:20 PM91 °FHot.13 mph32%29.95 "HgN/A
5:20 PM91 °FHot.12 mph32%29.95 "HgN/A
4:20 PM91 °FHot.12 mph34%29.98 "HgN/A
3:20 PM91 °FHot.12 mph34%29.98 "HgN/A
2:20 PM88 °FPleasantly warm.9 mph38%30.01 "HgN/A
1:20 PM86 °FPassing clouds.10 mph40%30.01 "HgN/A
12:20 PM84 °FPassing clouds.9 mph43%30.04 "HgN/A
11:20 AM82 °FPassing clouds.8 mph45%30.04 "HgN/A
10:20 AM79 °FPassing clouds.7 mph51%30.07 "HgN/A
9:20 AM73 °FPassing clouds.7 mph61%30.07 "HgN/A
8:20 AM70 °FPassing clouds.7 mph69%30.07 "HgN/A
Weather by CustomWeather, © 2016

See weather overviewHow to use our weather pages